WZZ5464 EDLW-EGGW

Flight info

Callsign WZZ5464
Flight time 1h 10m
Altitude 32000
Route HMM1U/24 HMM L602 FLEVO L980 PAM DCT NOGRO M40 RINIS
Aircraft A321/M-SDE1E2E3FGIJ1J4RWXY/LB1

Departure

Time 2026-05-07 11:04
Airport Dortmund Airport (EDLW)

Arrival

Time 2026-05-07 12:15
Airport London Luton Airport (EGGW)
Time Latitude Longitude Altitude Speed Heading
2026-05-07 10:27 51.51438 7.61056 427 ft 0 kts 143°
2026-05-07 10:57 51.51445 7.61047 418 ft 4 kts 145°
2026-05-07 10:57 51.51465 7.61026 425 ft 3 kts 145°
2026-05-07 10:57 51.51482 7.60998 422 ft 4 kts 99°
2026-05-07 10:57 51.51477 7.60961 425 ft 4 kts 60°
2026-05-07 10:58 51.51472 7.60947 424 ft 0 kts 60°
2026-05-07 11:00 51.51476 7.60958 434 ft 3 kts 60°
2026-05-07 11:00 51.51495 7.61012 431 ft 7 kts 60°
2026-05-07 11:00 51.51538 7.61052 425 ft 8 kts
2026-05-07 11:01 51.51595 7.61094 427 ft 13 kts 52°
2026-05-07 11:01 51.51646 7.61234 422 ft 15 kts 60°
2026-05-07 11:01 51.51699 7.61387 425 ft 16 kts 60°
2026-05-07 11:01 51.51757 7.61551 425 ft 18 kts 60°
2026-05-07 11:02 51.51829 7.61753 414 ft 24 kts 60°
2026-05-07 11:02 51.51914 7.61996 407 ft 26 kts 60°
2026-05-07 11:02 51.52003 7.62247 411 ft 26 kts 60°
2026-05-07 11:02 51.52093 7.62505 412 ft 27 kts 61°
2026-05-07 11:03 51.52177 7.62740 410 ft 20 kts 53°
2026-05-07 11:03 51.52267 7.62762 412 ft 12 kts 335°
2026-05-07 11:03 51.52334 7.62692 414 ft 10 kts 296°
2026-05-07 11:03 51.52298 7.62544 413 ft 31 kts 240°
2026-05-07 11:04 51.52057 7.61855 408 ft 107 kts 240°
2026-05-07 11:04 51.51590 7.60546 529 ft 153 kts 242°
2026-05-07 11:04 51.51070 7.59127 1387 ft 145 kts 242°
2026-05-07 11:04 51.50572 7.57710 1989 ft 149 kts 243°
2026-05-07 11:05 51.50032 7.56154 2258 ft 169 kts 243°
2026-05-07 11:05 51.49637 7.55020 2388 ft 183 kts 242°
2026-05-07 11:05 51.48971 7.53124 2536 ft 207 kts 242°
2026-05-07 11:05 51.48221 7.51005 2715 ft 230 kts 242°
2026-05-07 11:06 51.47508 7.48627 3203 ft 238 kts 262°
2026-05-07 11:06 51.47666 7.46060 3978 ft 234 kts 295°
2026-05-07 11:06 51.48469 7.43804 4751 ft 233 kts 314°
2026-05-07 11:06 51.49716 7.42164 5503 ft 233 kts 332°
2026-05-07 11:07 51.51178 7.41003 6272 ft 237 kts 334°
2026-05-07 11:07 51.52675 7.39620 6678 ft 259 kts 329°
2026-05-07 11:07 51.54231 7.38052 7301 ft 267 kts 328°
2026-05-07 11:07 51.55805 7.36417 8031 ft 272 kts 328°
2026-05-07 11:08 51.57400 7.34752 8753 ft 276 kts 328°
2026-05-07 11:08 51.59023 7.33062 9477 ft 280 kts 328°
2026-05-07 11:08 51.60666 7.31358 10201 ft 283 kts 328°
2026-05-07 11:08 51.62376 7.29592 10473 ft 303 kts 328°
2026-05-07 11:09 51.64216 7.27695 10660 ft 323 kts 328°
2026-05-07 11:09 51.66138 7.25711 11150 ft 332 kts 327°
2026-05-07 11:09 51.68101 7.23688 11742 ft 338 kts 327°
2026-05-07 11:09 51.70091 7.21636 12395 ft 341 kts 327°
2026-05-07 11:10 51.72100 7.19553 13070 ft 344 kts 326°
2026-05-07 11:10 51.74121 7.17450 13767 ft 347 kts 326°
2026-05-07 11:10 51.76163 7.15326 14382 ft 351 kts 326°
2026-05-07 11:10 51.78220 7.13187 14986 ft 354 kts 326°
2026-05-07 11:11 51.80297 7.11029 15580 ft 357 kts 326°
2026-05-07 11:11 51.82401 7.08839 16154 ft 361 kts 326°
2026-05-07 11:11 51.84517 7.06631 16764 ft 364 kts 326°
2026-05-07 11:11 51.86657 7.04399 17317 ft 368 kts 326°
2026-05-07 11:12 51.88768 7.02040 17878 ft 370 kts 317°
2026-05-07 11:12 51.90426 6.98875 18420 ft 371 kts 300°
2026-05-07 11:12 51.91731 6.95258 18942 ft 373 kts 299°
2026-05-07 11:12 51.93032 6.91604 19494 ft 376 kts 299°
2026-05-07 11:13 51.94340 6.87914 20075 ft 379 kts 299°
2026-05-07 11:13 51.95659 6.84188 20633 ft 383 kts 299°
2026-05-07 11:13 51.96989 6.80430 21221 ft 386 kts 299°
2026-05-07 11:13 51.98332 6.76631 21812 ft 390 kts 299°
2026-05-07 11:14 51.99685 6.72799 22362 ft 393 kts 299°
2026-05-07 11:14 52.00998 6.68893 22913 ft 396 kts 292°
2026-05-07 11:14 52.01944 6.64677 23413 ft 399 kts 288°
2026-05-07 11:14 52.02848 6.60406 23858 ft 401 kts 288°
2026-05-07 11:15 52.03751 6.56115 24279 ft 403 kts 288°
2026-05-07 11:15 52.04660 6.51789 24672 ft 406 kts 288°
2026-05-07 11:15 52.05571 6.47446 25092 ft 407 kts 288°
2026-05-07 11:15 52.06352 6.43025 25478 ft 409 kts 278°
2026-05-07 11:16 52.06470 6.38410 25838 ft 411 kts 269°
2026-05-07 11:16 52.06400 6.33761 26232 ft 413 kts 268°
2026-05-07 11:16 52.06315 6.29074 26620 ft 416 kts 268°
2026-05-07 11:16 52.06221 6.24369 27006 ft 418 kts 268°
2026-05-07 11:17 52.06124 6.19637 27419 ft 420 kts 268°
2026-05-07 11:17 52.06030 6.14884 27803 ft 422 kts 268°
2026-05-07 11:17 52.05936 6.10097 28180 ft 425 kts 268°
2026-05-07 11:17 52.05841 6.05284 28566 ft 427 kts 268°
2026-05-07 11:18 52.05747 6.00444 28965 ft 430 kts 268°
2026-05-07 11:18 52.05650 5.95580 29353 ft 432 kts 268°
2026-05-07 11:18 52.05551 5.90684 29701 ft 435 kts 268°
2026-05-07 11:18 52.05445 5.85763 30048 ft 437 kts 268°
2026-05-07 11:19 52.05336 5.80885 30363 ft 439 kts 268°
2026-05-07 11:19 52.05220 5.75854 30663 ft 441 kts 268°
2026-05-07 11:19 52.05108 5.70935 30954 ft 443 kts 268°
2026-05-07 11:19 52.04995 5.65931 31343 ft 442 kts 268°
2026-05-07 11:20 52.04882 5.60946 31766 ft 441 kts 267°
2026-05-07 11:20 52.04763 5.55958 32014 ft 442 kts 267°
2026-05-07 11:20 52.04642 5.51032 32061 ft 430 kts 267°
2026-05-07 11:20 52.04522 5.46217 32068 ft 424 kts 267°
2026-05-07 11:21 52.04282 5.36700 32072 ft 421 kts 267°
2026-05-07 11:21 52.04032 5.27209 32075 ft 421 kts 267°
2026-05-07 11:22 52.03775 5.17720 32075 ft 421 kts 267°
2026-05-07 11:22 52.03508 5.08165 32074 ft 426 kts 267°
2026-05-07 11:23 52.03233 4.98533 32073 ft 427 kts 267°
2026-05-07 11:23 52.02943 4.88894 32069 ft 428 kts 266°
2026-05-07 11:24 52.02654 4.79241 32064 ft 428 kts 266°
2026-05-07 11:24 52.02357 4.69580 32068 ft 429 kts 266°
2026-05-07 11:25 52.02048 4.59910 32079 ft 429 kts 266°
2026-05-07 11:25 52.01722 4.50234 32087 ft 429 kts 266°
2026-05-07 11:26 52.01393 4.40551 32087 ft 430 kts 266°
2026-05-07 11:26 52.01061 4.30865 32096 ft 430 kts 266°
2026-05-07 11:27 52.00724 4.21180 32097 ft 430 kts 266°
2026-05-07 11:27 52.00381 4.11491 32100 ft 430 kts 266°
2026-05-07 11:28 52.00026 4.01813 32104 ft 430 kts 266°
2026-05-07 11:28 51.99661 3.92133 32108 ft 430 kts 266°
2026-05-07 11:29 51.99283 3.82447 32094 ft 431 kts 266°
2026-05-07 11:29 51.98905 3.72740 32086 ft 432 kts 265°
2026-05-07 11:30 51.98516 3.63033 32097 ft 431 kts 265°
2026-05-07 11:30 51.98134 3.53800 32101 ft 435 kts 265°
2026-05-07 11:31 51.97720 3.43919 32097 ft 442 kts 265°
2026-05-07 11:31 51.97295 3.33954 32099 ft 444 kts 265°
2026-05-07 11:32 51.96637 3.18946 31693 ft 447 kts 265°
2026-05-07 11:32 51.96401 3.13928 31143 ft 444 kts 265°
2026-05-07 11:33 51.96118 3.08969 30638 ft 440 kts 264°
2026-05-07 11:33 51.95794 3.04051 30138 ft 436 kts 263°
2026-05-07 11:33 51.95452 2.99190 29559 ft 432 kts 263°
2026-05-07 11:33 51.95107 2.94376 28993 ft 428 kts 263°
2026-05-07 11:34 51.94771 2.89612 28440 ft 424 kts 263°
2026-05-07 11:34 51.94446 2.84884 27892 ft 420 kts 263°
2026-05-07 11:34 51.94130 2.80198 27351 ft 416 kts 263°
2026-05-07 11:34 51.93819 2.75554 26829 ft 412 kts 263°
2026-05-07 11:35 51.93511 2.70963 26310 ft 409 kts 263°
2026-05-07 11:35 51.93204 2.66404 25802 ft 405 kts 263°
2026-05-07 11:35 51.92899 2.61881 25304 ft 402 kts 263°
2026-05-07 11:35 51.92593 2.57396 24820 ft 399 kts 263°
2026-05-07 11:36 51.92286 2.52939 24342 ft 396 kts 263°
2026-05-07 11:36 51.91981 2.48528 23916 ft 393 kts 263°
2026-05-07 11:36 51.91674 2.44145 23460 ft 390 kts 263°
2026-05-07 11:36 51.91365 2.39796 22961 ft 387 kts 263°
2026-05-07 11:37 51.91058 2.35478 22468 ft 385 kts 263°
2026-05-07 11:37 51.90768 2.31188 22041 ft 381 kts 264°
2026-05-07 11:37 51.90585 2.26932 21641 ft 377 kts 266°
2026-05-07 11:37 51.90590 2.22725 21242 ft 372 kts 277°
2026-05-07 11:38 51.91220 2.18696 20859 ft 367 kts 287°
2026-05-07 11:38 51.92016 2.14791 20475 ft 363 kts 288°
2026-05-07 11:38 51.92807 2.10943 20089 ft 358 kts 288°
2026-05-07 11:38 51.93592 2.07139 19718 ft 354 kts 288°
2026-05-07 11:39 51.94371 2.03375 19353 ft 351 kts 288°
2026-05-07 11:39 51.95144 1.99638 19018 ft 349 kts 288°
2026-05-07 11:39 51.95913 1.95915 18777 ft 348 kts 288°
2026-05-07 11:39 51.96678 1.92197 18532 ft 347 kts 288°
2026-05-07 11:40 51.97436 1.88485 18291 ft 346 kts 287°
2026-05-07 11:40 51.98189 1.84785 18093 ft 345 kts 287°
2026-05-07 11:40 51.98939 1.81097 18104 ft 345 kts 287°
2026-05-07 11:40 51.99688 1.77402 18106 ft 345 kts 287°
2026-05-07 11:41 52.00429 1.73750 18108 ft 345 kts 287°
2026-05-07 11:41 52.01179 1.70050 18106 ft 345 kts 287°
2026-05-07 11:41 52.01928 1.66348 18105 ft 345 kts 287°
2026-05-07 11:41 52.02676 1.62646 18106 ft 345 kts 287°
2026-05-07 11:42 52.03422 1.58946 18104 ft 345 kts 287°
2026-05-07 11:42 52.04167 1.55244 18107 ft 345 kts 287°
2026-05-07 11:42 52.04911 1.51548 18105 ft 344 kts 287°
2026-05-07 11:42 52.05652 1.47856 18103 ft 344 kts 287°
2026-05-07 11:43 52.06391 1.44166 18098 ft 344 kts 287°
2026-05-07 11:43 52.07128 1.40473 18097 ft 344 kts 287°
2026-05-07 11:43 52.07863 1.36771 18096 ft 344 kts 287°
2026-05-07 11:43 52.08598 1.33071 18094 ft 344 kts 287°
2026-05-07 11:44 52.09330 1.29376 18094 ft 344 kts 287°
2026-05-07 11:44 52.10063 1.25671 18091 ft 344 kts 287°
2026-05-07 11:44 52.10795 1.21963 18013 ft 345 kts 287°
2026-05-07 11:44 52.11526 1.18259 17729 ft 343 kts 287°
2026-05-07 11:45 52.12253 1.14573 17431 ft 341 kts 287°
2026-05-07 11:45 52.12973 1.10915 17112 ft 339 kts 287°
2026-05-07 11:45 52.13692 1.07261 16791 ft 338 kts 287°
2026-05-07 11:45 52.14404 1.03630 16476 ft 336 kts 287°
2026-05-07 11:46 52.15113 1.00018 16168 ft 334 kts 287°
2026-05-07 11:46 52.15815 0.96431 15859 ft 332 kts 287°
2026-05-07 11:46 52.16513 0.92852 15563 ft 329 kts 287°
2026-05-07 11:46 52.17198 0.89333 15249 ft 323 kts 287°
2026-05-07 11:47 52.17866 0.85884 15040 ft 315 kts 287°
2026-05-07 11:47 52.18514 0.82532 14865 ft 307 kts 287°
2026-05-07 11:47 52.19153 0.79222 14694 ft 306 kts 287°
2026-05-07 11:47 52.19789 0.75915 14515 ft 306 kts 287°
2026-05-07 11:48 52.20424 0.72612 14348 ft 305 kts 287°
2026-05-07 11:48 52.21059 0.69312 14187 ft 305 kts 287°
2026-05-07 11:48 52.21664 0.66006 14076 ft 303 kts 282°
2026-05-07 11:48 52.21965 0.62604 14021 ft 304 kts 276°
2026-05-07 11:49 52.22213 0.59193 13760 ft 302 kts 276°
2026-05-07 11:49 52.22463 0.55798 13490 ft 301 kts 276°
2026-05-07 11:49 52.22628 0.53559 13312 ft 300 kts 276°
2026-05-07 11:49 52.22876 0.50188 13047 ft 299 kts 276°
2026-05-07 11:50 52.23120 0.46830 12783 ft 298 kts 276°
2026-05-07 11:50 52.23363 0.43476 12519 ft 297 kts 276°
2026-05-07 11:50 52.23605 0.40141 12259 ft 296 kts 276°
2026-05-07 11:50 52.23846 0.36810 11991 ft 295 kts 276°
2026-05-07 11:51 52.24081 0.33486 11741 ft 295 kts 276°
2026-05-07 11:51 52.24312 0.30172 11484 ft 293 kts 276°
2026-05-07 11:51 52.24541 0.26873 11232 ft 292 kts 276°
2026-05-07 11:51 52.24770 0.23582 10979 ft 291 kts 276°
2026-05-07 11:52 52.25001 0.20304 10738 ft 290 kts 276°
2026-05-07 11:52 52.25232 0.17033 10488 ft 290 kts 276°
2026-05-07 11:52 52.25462 0.13774 10244 ft 289 kts 276°
2026-05-07 11:52 52.25688 0.10522 10001 ft 288 kts 275°
2026-05-07 11:53 52.25910 0.07309 9808 ft 280 kts 276°
2026-05-07 11:53 52.26125 0.04198 9667 ft 271 kts 275°
2026-05-07 11:53 52.26281 0.01190 9528 ft 261 kts 266°
2026-05-07 11:53 52.25885 -0.01626 9302 ft 253 kts 242°
2026-05-07 11:54 52.24872 -0.03912 9031 ft 249 kts 224°
2026-05-07 11:54 52.23657 -0.05930 8763 ft 249 kts 224°
2026-05-07 11:54 52.22451 -0.07944 8505 ft 248 kts 224°
2026-05-07 11:54 52.21245 -0.09956 8244 ft 248 kts 224°
2026-05-07 11:55 52.20041 -0.11965 7981 ft 248 kts 224°
2026-05-07 11:55 52.18839 -0.13966 7721 ft 247 kts 224°
2026-05-07 11:55 52.17641 -0.15959 7476 ft 246 kts 224°
2026-05-07 11:55 52.16446 -0.17949 7230 ft 246 kts 224°
2026-05-07 11:56 52.15251 -0.19936 6979 ft 245 kts 223°
2026-05-07 11:56 52.14059 -0.21912 6732 ft 244 kts 224°
2026-05-07 11:56 52.12869 -0.23887 6486 ft 244 kts 224°
2026-05-07 11:56 52.11686 -0.25852 6223 ft 243 kts 224°
2026-05-07 11:57 52.10506 -0.27808 5959 ft 242 kts 224°
2026-05-07 11:57 52.09332 -0.29751 5697 ft 241 kts 223°
2026-05-07 11:57 52.08164 -0.31689 5436 ft 239 kts 224°
2026-05-07 11:57 52.07002 -0.33614 5178 ft 238 kts 224°
2026-05-07 11:58 52.05847 -0.35527 5025 ft 237 kts 224°
2026-05-07 11:58 52.04693 -0.37433 5004 ft 237 kts 224°
2026-05-07 11:58 52.03540 -0.39334 5008 ft 236 kts 224°
2026-05-07 11:58 52.02392 -0.41226 5005 ft 235 kts 224°
2026-05-07 11:59 52.01244 -0.43112 5006 ft 234 kts 223°
2026-05-07 11:59 52.00115 -0.44966 5005 ft 234 kts 224°
2026-05-07 11:59 51.98951 -0.46879 5007 ft 235 kts 223°
2026-05-07 11:59 51.97818 -0.48740 5006 ft 235 kts 224°
2026-05-07 12:00 51.96654 -0.50654 5004 ft 235 kts 224°
2026-05-07 12:00 51.95507 -0.52539 5007 ft 235 kts 224°
2026-05-07 12:00 51.94357 -0.54425 5008 ft 235 kts 223°
2026-05-07 12:00 51.93220 -0.56285 4822 ft 235 kts 223°
2026-05-07 12:01 51.92062 -0.58178 4554 ft 232 kts 224°
2026-05-07 12:01 51.90945 -0.60005 4294 ft 231 kts 224°
2026-05-07 12:01 51.89782 -0.61784 4024 ft 230 kts 212°
2026-05-07 12:01 51.88311 -0.62635 3778 ft 224 kts 180°
2026-05-07 12:02 51.86828 -0.62238 3653 ft 212 kts 163°
2026-05-07 12:02 51.85487 -0.61421 3481 ft 199 kts 147°
2026-05-07 12:02 51.84604 -0.59807 3212 ft 189 kts 120°
2026-05-07 12:02 51.84178 -0.57869 2998 ft 179 kts 100°
2026-05-07 12:03 51.84171 -0.55913 2794 ft 172 kts 83°
2026-05-07 12:03 51.84466 -0.54073 2579 ft 167 kts 76°
2026-05-07 12:03 51.84778 -0.52290 2363 ft 164 kts 76°
2026-05-07 12:03 51.85087 -0.50521 2136 ft 163 kts 76°
2026-05-07 12:04 51.85395 -0.48753 1914 ft 163 kts 77°
2026-05-07 12:04 51.85697 -0.47022 1712 ft 157 kts 76°
2026-05-07 12:04 51.85989 -0.45347 1479 ft 153 kts 77°
2026-05-07 12:04 51.86275 -0.43701 1265 ft 151 kts 76°
2026-05-07 12:05 51.86558 -0.42070 1046 ft 150 kts 75°
2026-05-07 12:05 51.86840 -0.40445 845 ft 149 kts 75°
2026-05-07 12:05 51.87120 -0.38839 635 ft 148 kts 76°
2026-05-07 12:05 51.87385 -0.37281 526 ft 133 kts 76°
2026-05-07 12:06 51.87625 -0.35813 748 ft 147 kts 76°
2026-05-07 12:06 51.87895 -0.34168 1602 ft 155 kts 77°
2026-05-07 12:06 51.88191 -0.32450 2105 ft 167 kts 76°
2026-05-07 12:06 51.88523 -0.30546 2442 ft 183 kts 76°
2026-05-07 12:07 51.88885 -0.28477 2837 ft 199 kts 76°
2026-05-07 12:07 51.89563 -0.26456 3234 ft 214 kts 45°
2026-05-07 12:07 51.90887 -0.25335 3623 ft 221 kts 11°
2026-05-07 12:07 51.92447 -0.25592 3865 ft 236 kts 337°
2026-05-07 12:08 51.93741 -0.27210 4105 ft 238 kts 303°
2026-05-07 12:08 51.94330 -0.29673 4371 ft 237 kts 277°
2026-05-07 12:08 51.94438 -0.32331 4633 ft 237 kts 265°
2026-05-07 12:08 51.94295 -0.34988 4891 ft 238 kts 261°
2026-05-07 12:09 51.94108 -0.37666 4989 ft 239 kts 261°
2026-05-07 12:09 51.93774 -0.40296 5003 ft 238 kts 252°
2026-05-07 12:09 51.93308 -0.42865 5006 ft 237 kts 251°
2026-05-07 12:09 51.92829 -0.45420 5011 ft 237 kts 251°
2026-05-07 12:10 51.92338 -0.47968 5010 ft 237 kts 251°
2026-05-07 12:10 51.91845 -0.50506 5020 ft 232 kts 251°
2026-05-07 12:10 51.91386 -0.52921 5027 ft 216 kts 251°
2026-05-07 12:10 51.90964 -0.55133 4940 ft 196 kts 249°
2026-05-07 12:11 51.90456 -0.57115 4616 ft 188 kts 230°
2026-05-07 12:11 51.89407 -0.58218 4247 ft 180 kts 189°
2026-05-07 12:11 51.88182 -0.58047 3947 ft 179 kts 165°
2026-05-07 12:11 51.86983 -0.57464 3499 ft 182 kts 161°
2026-05-07 12:12 51.85831 -0.56601 3042 ft 183 kts 138°
2026-05-07 12:12 51.85226 -0.54858 2757 ft 179 kts 107°
2026-05-07 12:12 51.84966 -0.52893 2376 ft 178 kts 101°
2026-05-07 12:12 51.85007 -0.50950 2171 ft 171 kts 77°
2026-05-07 12:13 51.85326 -0.49126 1949 ft 166 kts 76°
2026-05-07 12:13 51.85635 -0.47370 1753 ft 158 kts 77°
2026-05-07 12:13 51.85930 -0.45683 1521 ft 154 kts 77°
2026-05-07 12:13 51.86217 -0.44032 1305 ft 151 kts 76°
2026-05-07 12:14 51.86500 -0.42401 1093 ft 150 kts 76°
2026-05-07 12:14 51.86782 -0.40779 885 ft 149 kts 75°
2026-05-07 12:14 51.87061 -0.39173 671 ft 148 kts 76°
2026-05-07 12:14 51.87334 -0.37593 522 ft 135 kts 75°
2026-05-07 12:15 51.87524 -0.36492 523 ft 74 kts 74°
2026-05-07 12:15 51.87618 -0.35962 516 ft 23 kts 65°
2026-05-07 12:15 51.87712 -0.35937 516 ft 15 kts 344°
2026-05-07 12:15 51.87783 -0.36050 518 ft 15 kts 276°
2026-05-07 12:16 51.87761 -0.36210 518 ft 15 kts 253°
2026-05-07 12:16 51.87731 -0.36383 518 ft 16 kts 254°
2026-05-07 12:16 51.87701 -0.36560 520 ft 16 kts 254°
2026-05-07 12:16 51.87670 -0.36735 523 ft 16 kts 254°
2026-05-07 12:17 51.87650 -0.36894 525 ft 14 kts 281°
2026-05-07 12:17 51.87740 -0.36985 519 ft 19 kts 342°
2026-05-07 12:17 51.87884 -0.37061 510 ft 22 kts 342°
2026-05-07 12:17 51.88000 -0.37122 508 ft 14 kts 341°
2026-05-07 12:18 51.88029 -0.37224 508 ft 7 kts 215°
2026-05-07 12:18 51.87987 -0.37211 508 ft 5 kts 160°
2026-05-07 12:18 51.87980 -0.37207 508 ft 0 kts 161°